カタログに戻る

STARLINK-5298

運用中通信VLEO
NORAD 55281·PAYLOAD·🇺🇸 United States

打ち上げ Jan 19, 2023 から Vandenberg Space Force Base

Loading…

次のパス (今後24時間)

TLE

最新Source: CelesTrak SupGP

元期: Sep 14, 2026, 21:22 UTC

1 55281C 23010N   26257.89076389  .00045266  00000+0  37943-2 0  2576
2 55281  69.9988 287.3924 0003716 267.8119 208.6897 14.98297811    19

AllMySatでSTARLINK-5298をリアルタイム追跡

Download on the App Store